Miscellaneous Local Product
Issued by NWS Hastings, NE

Home | Current Version | Previous Version | Text Only | Print | Product List | Glossary Off
Versions: 1 2 3 4 5 6 7 8 9 10 11 12 13 14 15 16 17 18 19 20 21 22 23 24 25 26 27 28 29 30 31 32 33 34 35 36 37 38 39 40 41 42 43 44 45 46 47 48 49 50

753
AXUS43 KGID 051802
MISGRI

GID CWA HOURLY WEATHER ROUNDUP
NATIONAL WEATHER SERVICE HASTINGS NE
1200 PM CST FRI FEB 05 2016

NOTE: "FAIR" INDICATES FEW OR NO CLOUDS BELOW 12,000 FEET WITH NO
SIGNIFICANT WEATHER AND/OR OBSTRUCTIONS TO VISIBILITY.

...SOUTH CENTRAL NEBRASKA...

CITY           SKY/WX    TMP DP  RH WIND       PRES   REMARKS
GRAND ISLAND   MOSUNNY   33  28  81 SW15      30.24F WCI  23
HASTINGS       CLOUDY    31  26  82 SW12G17   30.24F WCI  22
ORD            CLOUDY    36  27  69 NW7       30.20F WCI  30
YORK           CLOUDY    28  27  93 SW13      30.27F WCI  18
AURORA         FLURRIES  31  29  94 SW12G18   30.25F WCI  22
LEXINGTON      SUNNY     34  24  68 NW15      30.25R WCI  24
HOLDREGE       MOSUNNY   33  29  83 SW9       30.24F WCI  26
HEBRON         CLOUDY    30  27  89 SW7       30.31F WCI  23

...NEBRASKA PANHANDLE...

CITY           SKY/WX    TMP DP  RH WIND       PRES   REMARKS
CHADRON        CLOUDY    34  23  64 W23G29    30.27R WCI  22
ALLIANCE       SUNNY     31  23  72 NW16      30.24S WCI  20
SCOTTSBLUFF    SUNNY     30  16  56 NW15      30.30F WCI  19
SIDNEY         PTSUNNY   28  17  63 NW18      30.29R WCI  15

...WESTERN AND NORTH CENTRAL NEBRASKA...

CITY           SKY/WX    TMP DP  RH WIND       PRES   REMARKS
VALENTINE      CLOUDY    35  27  72 NW20G25   30.20F WCI  24
AINSWORTH      PTSUNNY   37  28  71 NW23      30.20S WCI  25
ONEILL         CLOUDY    37  28  71 W9        30.18F WCI  30
BROKEN BOW     CLOUDY    36  26  67 NW13      30.21S WCI  27
IMPERIAL       SUNNY     33  20  58 NW20      30.28S WCI  21
NORTH PLATTE   PTSUNNY   33  24  69 NW14      30.25S WCI  23
MCCOOK         SUNNY     35  23  61 NW16G25   30.28S WCI  25

...EASTERN NEBRASKA...

CITY           SKY/WX    TMP DP  RH WIND       PRES   REMARKS
NORFOLK        CLOUDY    28  25  88 S12       30.22F WCI  18
SO SIOUX CITY  FLURRIES  29  23  78 S16       30.28F WCI  17
TEKAMAH        LGT SNOW  27  23  85 S15       30.31F FOG     WCI  15
COLUMBUS       CLOUDY    28  19  69 S13       30.26F WCI  18
ALBION         CLOUDY    28  24  86 S3        30.23F
OMAHA EPPLEY   LGT SNOW  28  24  85 S12       30.33F VSB 1   WCI  18
OFFUTT AFB     LGT SNOW  29  24  81 S10       30.32F FOG     WCI  20
MILLARD        LGT SNOW  28  25  86 SE7       30.33F WCI  21
LINCOLN        LGT SNOW  28  25  88 S10       30.32F VSB 1   WCI  19
NEBRASKA CITY  CLOUDY    30  23  75 S14       30.33F WCI  19
BEATRICE       CLOUDY    30  23  77 S14       30.31F WCI  19
FALLS CITY     CLOUDY    31  23  72 S10       30.36F WCI  22

...NORTHERN KANSAS...

CITY           SKY/WX    TMP DP  RH WIND       PRES   REMARKS
GOODLAND       SUNNY     32  21  64 NW17      30.31S WCI  21
HILL CITY      CLOUDY    36  25  64 W13       30.32S WCI  27
NORTON         CLEAR     37  25  60 W18       30.27F WCI  27
PHILLIPSBURG   CLOUDY    36  23  60 S6        30.29F WCI  31
BELOIT         MOSUNNY   34  27  75 SW8       30.33F WCI  27
HAYS           CLOUDY    30  18  59 SW7       30.33F WCI  23
RUSSELL        CLOUDY    30  22  72 SW12      30.32S WCI  20
CONCORDIA      CLOUDY    33  23  66 S9        30.31F WCI  25
SALINA         MOSUNNY   39  23  52 S9        30.34F WCI  33
TOPEKA           N/A     34  22  61 SE6       30.39F WCI  29



USA.gov is the U.S. government's official web portal to all federal, state and local government web resources and services.